SAS1629 EKCH-EDDL

Flight info

Callsign SAS1629
Flight time 1h 10m
Altitude 36000
Route NEXEN T503 GIMRU DCT MICOS DCT KEGAB DCT DENOL/N0434F260 T851 HMM/N0421F240 T851 HALME HALME1A
Aircraft CRJ9/M-SDFGIRWY/S

Departure

Time 2026-05-05 17:44
Airport Copenhagen Kastrup Airport (EKCH)

Arrival

Time 2026-05-05 18:55
Airport Düsseldorf Airport (EDDL)
Time Latitude Longitude Altitude Speed Heading
2026-05-05 17:19 55.62719 12.65323 15 ft 0 kts 17°
2026-05-05 17:29 55.62706 12.65316 15 ft 3 kts 16°
2026-05-05 17:30 55.62687 12.65309 17 ft 3 kts
2026-05-05 17:30 55.62667 12.65308 15 ft 3 kts 357°
2026-05-05 17:30 55.62647 12.65313 19 ft 3 kts 348°
2026-05-05 17:30 55.62627 12.65319 17 ft 3 kts 355°
2026-05-05 17:31 55.62607 12.65320 15 ft 3 kts 359°
2026-05-05 17:31 55.62596 12.65320 19 ft 0 kts 359°
2026-05-05 17:35 55.62610 12.65318 17 ft 5 kts 352°
2026-05-05 17:35 55.62644 12.65285 16 ft 6 kts 296°
2026-05-05 17:35 55.62642 12.65222 15 ft 5 kts 230°
2026-05-05 17:36 55.62611 12.65200 15 ft 5 kts 185°
2026-05-05 17:36 55.62569 12.65203 15 ft 7 kts 179°
2026-05-05 17:36 55.62512 12.65205 15 ft 9 kts 179°
2026-05-05 17:36 55.62446 12.65206 15 ft 10 kts 179°
2026-05-05 17:37 55.62373 12.65208 15 ft 11 kts 179°
2026-05-05 17:37 55.62293 12.65203 15 ft 12 kts 181°
2026-05-05 17:37 55.62210 12.65179 15 ft 13 kts 206°
2026-05-05 17:37 55.62133 12.65097 16 ft 13 kts 212°
2026-05-05 17:38 55.62054 12.65004 18 ft 14 kts 214°
2026-05-05 17:38 55.61969 12.64906 17 ft 16 kts 213°
2026-05-05 17:38 55.61875 12.64800 16 ft 16 kts 213°
2026-05-05 17:38 55.61777 12.64688 17 ft 17 kts 213°
2026-05-05 17:39 55.61675 12.64571 15 ft 18 kts 213°
2026-05-05 17:39 55.61568 12.64448 15 ft 19 kts 213°
2026-05-05 17:39 55.61457 12.64321 15 ft 19 kts 213°
2026-05-05 17:39 55.61342 12.64188 16 ft 20 kts 213°
2026-05-05 17:40 55.61223 12.64051 16 ft 21 kts 213°
2026-05-05 17:40 55.61100 12.63909 17 ft 21 kts 213°
2026-05-05 17:40 55.60975 12.63765 15 ft 22 kts 213°
2026-05-05 17:40 55.60844 12.63613 15 ft 23 kts 213°
2026-05-05 17:41 55.60711 12.63459 17 ft 23 kts 213°
2026-05-05 17:41 55.60585 12.63289 15 ft 23 kts 220°
2026-05-05 17:41 55.60487 12.63141 15 ft 16 kts 216°
2026-05-05 17:41 55.60413 12.63135 15 ft 7 kts 143°
2026-05-05 17:42 55.60406 12.63145 17 ft 0 kts 139°
2026-05-05 17:42 55.60386 12.63181 15 ft 10 kts 131°
2026-05-05 17:42 55.60344 12.63271 17 ft 8 kts 117°
2026-05-05 17:42 55.60349 12.63361 19 ft 8 kts 51°
2026-05-05 17:43 55.60363 12.63384 17 ft 0 kts 40°
2026-05-05 17:43 55.60376 12.63403 18 ft 20 kts 40°
2026-05-05 17:44 55.60702 12.63904 17 ft 102 kts 42°
2026-05-05 17:44 55.61409 12.64992 30 ft 164 kts 41°
2026-05-05 17:44 55.62304 12.66480 652 ft 174 kts 34°
2026-05-05 17:44 55.63256 12.67605 1856 ft 159 kts 37°
2026-05-05 17:45 55.64124 12.68813 2826 ft 156 kts 42°
2026-05-05 17:45 55.64886 12.70109 3763 ft 150 kts 41°
2026-05-05 17:45 55.65640 12.71367 4576 ft 148 kts 40°
2026-05-05 17:45 55.66441 12.72685 5105 ft 171 kts 40°
2026-05-05 17:46 55.67356 12.74121 5856 ft 178 kts 39°
2026-05-05 17:46 55.68292 12.75550 6677 ft 176 kts 37°
2026-05-05 17:46 55.69251 12.76992 7190 ft 194 kts 36°
2026-05-05 17:46 55.70386 12.78636 7428 ft 224 kts 34°
2026-05-05 17:47 55.71586 12.80611 7834 ft 249 kts 54°
2026-05-05 17:47 55.72102 12.83657 8274 ft 272 kts 91°
2026-05-05 17:47 55.71550 12.86923 8825 ft 286 kts 125°
2026-05-05 17:47 55.70078 12.89296 9449 ft 292 kts 158°
2026-05-05 17:48 55.68164 12.90158 10235 ft 288 kts 177°
2026-05-05 17:48 55.66163 12.90634 11039 ft 292 kts 177°
2026-05-05 17:48 55.64143 12.91234 11863 ft 296 kts 174°
2026-05-05 17:48 55.62109 12.91747 12646 ft 293 kts 189°
2026-05-05 17:49 55.60196 12.90748 13485 ft 286 kts 209°
2026-05-05 17:49 55.58418 12.89156 14257 ft 287 kts 214°
2026-05-05 17:49 55.56816 12.87103 14994 ft 285 kts 226°
2026-05-05 17:49 55.55421 12.84615 15735 ft 286 kts 230°
2026-05-05 17:50 55.54075 12.82012 16462 ft 288 kts 231°
2026-05-05 17:50 55.52729 12.79377 17192 ft 291 kts 231°
2026-05-05 17:50 55.51354 12.76739 17915 ft 293 kts 231°
2026-05-05 17:50 55.50005 12.74018 18573 ft 295 kts 233°
2026-05-05 17:51 55.48676 12.71247 19193 ft 297 kts 233°
2026-05-05 17:51 55.47341 12.68437 19799 ft 299 kts 233°
2026-05-05 17:51 55.46014 12.65610 20395 ft 301 kts 234°
2026-05-05 17:51 55.44688 12.62742 20983 ft 303 kts 234°
2026-05-05 17:52 55.43358 12.59910 21538 ft 305 kts 233°
2026-05-05 17:52 55.41987 12.57036 22100 ft 307 kts 233°
2026-05-05 17:52 55.40606 12.54150 22646 ft 310 kts 233°
2026-05-05 17:52 55.39211 12.51242 23185 ft 312 kts 233°
2026-05-05 17:53 55.37804 12.48311 23681 ft 314 kts 233°
2026-05-05 17:53 55.36387 12.45362 24109 ft 316 kts 233°
2026-05-05 17:53 55.34960 12.42398 24524 ft 318 kts 233°
2026-05-05 17:53 55.33526 12.39420 24939 ft 320 kts 233°
2026-05-05 17:54 55.32081 12.36424 25348 ft 322 kts 233°
2026-05-05 17:54 55.30645 12.33451 25746 ft 324 kts 233°
2026-05-05 17:54 55.29162 12.30385 26136 ft 326 kts 233°
2026-05-05 17:54 55.27708 12.27384 26507 ft 328 kts 233°
2026-05-05 17:55 55.26227 12.24329 26881 ft 330 kts 232°
2026-05-05 17:55 55.24728 12.21232 27084 ft 337 kts 232°
2026-05-05 17:55 55.23182 12.18046 27119 ft 349 kts 232°
2026-05-05 17:55 55.21583 12.14756 27133 ft 360 kts 232°
2026-05-05 17:56 55.19782 12.11594 27153 ft 373 kts 224°
2026-05-05 17:56 55.17726 12.08700 27143 ft 385 kts 221°
2026-05-05 17:56 55.15519 12.05947 27184 ft 395 kts 219°
2026-05-05 17:56 55.13251 12.03189 27450 ft 397 kts 219°
2026-05-05 17:57 55.10996 12.00424 27857 ft 395 kts 220°
2026-05-05 17:57 55.08774 11.97614 28269 ft 393 kts 220°
2026-05-05 17:57 55.06567 11.94809 28673 ft 392 kts 220°
2026-05-05 17:57 55.04367 11.92013 29078 ft 391 kts 220°
2026-05-05 17:58 55.02168 11.89220 29484 ft 389 kts 220°
2026-05-05 17:58 54.99980 11.86450 29875 ft 388 kts 220°
2026-05-05 17:58 54.97801 11.83690 30190 ft 387 kts 220°
2026-05-05 17:58 54.95620 11.80932 30455 ft 387 kts 220°
2026-05-05 17:59 54.93454 11.78202 30891 ft 381 kts 220°
2026-05-05 17:59 54.91315 11.75503 31213 ft 380 kts 220°
2026-05-05 17:59 54.89173 11.72803 31461 ft 380 kts 220°
2026-05-05 17:59 54.87033 11.70115 31722 ft 379 kts 220°
2026-05-05 18:00 54.84893 11.67429 31982 ft 378 kts 220°
2026-05-05 18:00 54.82758 11.64756 32217 ft 379 kts 220°
2026-05-05 18:00 54.80619 11.62074 32441 ft 379 kts 221°
2026-05-05 18:00 54.78485 11.59392 32668 ft 379 kts 220°
2026-05-05 18:01 54.76375 11.56754 32904 ft 379 kts 220°
2026-05-05 18:01 54.74234 11.54088 33112 ft 379 kts 220°
2026-05-05 18:01 54.72094 11.51426 33332 ft 379 kts 220°
2026-05-05 18:01 54.69967 11.48784 33726 ft 374 kts 220°
2026-05-05 18:02 54.67859 11.46158 33950 ft 373 kts 220°
2026-05-05 18:02 54.65749 11.43535 34112 ft 374 kts 220°
2026-05-05 18:02 54.63632 11.40911 34267 ft 374 kts 220°
2026-05-05 18:02 54.61512 11.38287 34416 ft 375 kts 220°
2026-05-05 18:03 54.59388 11.35661 34569 ft 375 kts 220°
2026-05-05 18:03 54.57254 11.33027 34672 ft 377 kts 220°
2026-05-05 18:03 54.55123 11.30390 34826 ft 378 kts 220°
2026-05-05 18:03 54.52995 11.27737 34990 ft 378 kts 220°
2026-05-05 18:04 54.50862 11.25078 35145 ft 378 kts 220°
2026-05-05 18:04 54.48719 11.22440 35296 ft 379 kts 220°
2026-05-05 18:04 54.46572 11.19824 35517 ft 377 kts 219°
2026-05-05 18:04 54.44431 11.17224 35666 ft 377 kts 219°
2026-05-05 18:05 54.42287 11.14622 35806 ft 378 kts 219°
2026-05-05 18:05 54.37866 11.09582 35897 ft 385 kts 217°
2026-05-05 18:06 54.33304 11.04569 35908 ft 393 kts 216°
2026-05-05 18:06 54.28619 10.99572 35918 ft 401 kts 216°
2026-05-05 18:07 54.23857 10.94459 35904 ft 407 kts 215°
2026-05-05 18:07 54.19017 10.89276 35914 ft 414 kts 215°
2026-05-05 18:08 54.14104 10.84024 35919 ft 419 kts 215°
2026-05-05 18:08 54.09123 10.78718 35913 ft 424 kts 215°
2026-05-05 18:09 54.04129 10.73417 35913 ft 428 kts 215°
2026-05-05 18:09 53.99060 10.68047 35907 ft 430 kts 214°
2026-05-05 18:10 53.93962 10.62665 35908 ft 432 kts 214°
2026-05-05 18:10 53.88840 10.57277 35911 ft 434 kts 214°
2026-05-05 18:11 53.83700 10.51881 35911 ft 435 kts 214°
2026-05-05 18:11 53.78543 10.46479 35883 ft 437 kts 214°
2026-05-05 18:12 53.73369 10.41080 35901 ft 437 kts 214°
2026-05-05 18:12 53.68195 10.35695 35900 ft 432 kts 214°
2026-05-05 18:13 53.63173 10.30488 35894 ft 421 kts 214°
2026-05-05 18:13 53.58238 10.25384 35893 ft 412 kts 214°
2026-05-05 18:14 53.53395 10.20383 35889 ft 405 kts 213°
2026-05-05 18:14 53.48630 10.15480 35893 ft 398 kts 213°
2026-05-05 18:15 53.43937 10.10662 35892 ft 392 kts 213°
2026-05-05 18:15 53.39301 10.05920 35881 ft 387 kts 213°
2026-05-05 18:16 53.34729 10.01254 35883 ft 383 kts 213°
2026-05-05 18:16 53.30195 9.96633 35878 ft 382 kts 213°
2026-05-05 18:17 53.25657 9.92024 35889 ft 387 kts 213°
2026-05-05 18:17 53.21028 9.87334 35893 ft 391 kts 213°
2026-05-05 18:18 53.17139 9.83401 35894 ft 395 kts 213°
2026-05-05 18:18 53.12417 9.78638 35892 ft 399 kts 213°
2026-05-05 18:19 53.07645 9.73835 35889 ft 402 kts 213°
2026-05-05 18:19 53.02835 9.69011 35889 ft 406 kts 213°
2026-05-05 18:20 52.97976 9.64150 35890 ft 409 kts 213°
2026-05-05 18:20 52.93077 9.59262 35848 ft 413 kts 213°
2026-05-05 18:20 52.90595 9.56791 35466 ft 418 kts 212°
2026-05-05 18:21 52.88109 9.54318 35103 ft 416 kts 212°
2026-05-05 18:21 52.85634 9.51854 34709 ft 414 kts 212°
2026-05-05 18:21 52.83170 9.49415 34353 ft 412 kts 212°
2026-05-05 18:21 52.80713 9.46980 34000 ft 411 kts 212°
2026-05-05 18:22 52.78298 9.44589 33610 ft 409 kts 211°
2026-05-05 18:22 52.75853 9.42177 33196 ft 408 kts 212°
2026-05-05 18:22 52.73419 9.39773 32788 ft 408 kts 212°
2026-05-05 18:22 52.70982 9.37375 32391 ft 408 kts 212°
2026-05-05 18:23 52.68547 9.34977 31996 ft 408 kts 212°
2026-05-05 18:23 52.66106 9.32578 31610 ft 408 kts 211°
2026-05-05 18:23 52.63667 9.30184 31226 ft 409 kts 211°
2026-05-05 18:23 52.61216 9.27780 30854 ft 410 kts 211°
2026-05-05 18:24 52.58758 9.25370 30476 ft 412 kts 211°
2026-05-05 18:24 52.56292 9.22960 30102 ft 413 kts 211°
2026-05-05 18:24 52.53818 9.20547 29710 ft 415 kts 211°
2026-05-05 18:24 52.51330 9.18120 29287 ft 416 kts 211°
2026-05-05 18:25 52.48829 9.15684 28873 ft 418 kts 211°
2026-05-05 18:25 52.47165 9.14070 28602 ft 419 kts 211°
2026-05-05 18:25 52.43833 9.10829 28064 ft 421 kts 211°
2026-05-05 18:25 52.41309 9.08386 27666 ft 423 kts 211°
2026-05-05 18:26 52.38773 9.05929 27275 ft 423 kts 211°
2026-05-05 18:26 52.36228 9.03464 26880 ft 424 kts 211°
2026-05-05 18:26 52.33688 9.01013 26500 ft 425 kts 211°
2026-05-05 18:26 52.31139 8.98556 26126 ft 426 kts 211°
2026-05-05 18:27 52.28583 8.96091 25749 ft 425 kts 211°
2026-05-05 18:27 52.26059 8.93666 25378 ft 418 kts 211°
2026-05-05 18:27 52.23558 8.91263 25013 ft 417 kts 210°
2026-05-05 18:27 52.21059 8.88863 24664 ft 417 kts 210°
2026-05-05 18:28 52.16068 8.84085 23954 ft 416 kts 210°
2026-05-05 18:28 52.13571 8.81700 23606 ft 416 kts 210°
2026-05-05 18:28 52.11071 8.79313 23232 ft 416 kts 210°
2026-05-05 18:29 52.08572 8.76930 22822 ft 416 kts 210°
2026-05-05 18:29 52.06067 8.74551 22414 ft 416 kts 210°
2026-05-05 18:29 52.03565 8.72167 22008 ft 416 kts 210°
2026-05-05 18:29 52.01227 8.69412 21593 ft 418 kts 224°
2026-05-05 18:30 51.99509 8.65604 21208 ft 420 kts 239°
2026-05-05 18:30 51.98161 8.61405 20834 ft 420 kts 243°
2026-05-05 18:30 51.97009 8.57148 20460 ft 421 kts 248°
2026-05-05 18:30 51.96253 8.52552 20091 ft 422 kts 257°
2026-05-05 18:31 51.95747 8.47873 20082 ft 409 kts 258°
2026-05-05 18:31 51.95287 8.43435 19969 ft 401 kts 258°
2026-05-05 18:31 51.94772 8.39037 19890 ft 393 kts 256°
2026-05-05 18:31 51.94215 8.34748 19776 ft 388 kts 256°
2026-05-05 18:32 51.93647 8.30472 19397 ft 387 kts 254°
2026-05-05 18:32 51.92856 8.26310 18911 ft 389 kts 248°
2026-05-05 18:32 51.91923 8.22191 18442 ft 391 kts 248°
2026-05-05 18:32 51.90983 8.18030 17959 ft 394 kts 248°
2026-05-05 18:33 51.90085 8.13828 17417 ft 396 kts 250°
2026-05-05 18:33 51.89220 8.09578 16905 ft 398 kts 250°
2026-05-05 18:33 51.88147 8.05477 16376 ft 393 kts 239°
2026-05-05 18:33 51.86774 8.01711 15880 ft 385 kts 237°
2026-05-05 18:34 51.85357 7.98074 15381 ft 378 kts 236°
2026-05-05 18:34 51.83933 7.94528 14884 ft 373 kts 235°
2026-05-05 18:34 51.82515 7.91052 14395 ft 368 kts 235°
2026-05-05 18:34 51.81124 7.87699 14090 ft 359 kts 234°
2026-05-05 18:35 51.79735 7.84375 13946 ft 346 kts 234°
2026-05-05 18:35 51.78445 7.81208 13877 ft 340 kts 236°
2026-05-05 18:35 51.77184 7.77974 13855 ft 339 kts 237°
2026-05-05 18:35 51.75930 7.74746 13840 ft 340 kts 237°
2026-05-05 18:36 51.74679 7.71516 13836 ft 339 kts 236°
2026-05-05 18:36 51.73426 7.68301 13834 ft 339 kts 236°
2026-05-05 18:36 51.72168 7.65086 13834 ft 338 kts 236°
2026-05-05 18:36 51.70918 7.61879 13836 ft 338 kts 236°
2026-05-05 18:37 51.69657 7.58640 13533 ft 344 kts 237°
2026-05-05 18:37 51.68382 7.55380 13004 ft 344 kts 237°
2026-05-05 18:37 51.67105 7.52135 12483 ft 342 kts 236°
2026-05-05 18:37 51.65829 7.48900 11979 ft 341 kts 236°
2026-05-05 18:38 51.64569 7.45668 11469 ft 339 kts 237°
2026-05-05 18:38 51.63321 7.42471 11111 ft 335 kts 237°
2026-05-05 18:38 51.62088 7.39307 10961 ft 332 kts 237°
2026-05-05 18:38 51.60869 7.36187 10894 ft 327 kts 237°
2026-05-05 18:39 51.59663 7.33112 10868 ft 322 kts 237°
2026-05-05 18:39 51.58475 7.30096 10852 ft 317 kts 236°
2026-05-05 18:39 51.57298 7.27130 10841 ft 313 kts 237°
2026-05-05 18:39 51.56130 7.24205 10837 ft 310 kts 237°
2026-05-05 18:40 51.54965 7.21291 10839 ft 309 kts 237°
2026-05-05 18:40 51.53813 7.18382 10840 ft 308 kts 237°
2026-05-05 18:40 51.52666 7.15484 10843 ft 307 kts 237°
2026-05-05 18:40 51.51520 7.12595 10849 ft 306 kts 237°
2026-05-05 18:41 51.50390 7.09763 10849 ft 305 kts 237°
2026-05-05 18:41 51.49243 7.06900 10849 ft 304 kts 237°
2026-05-05 18:41 51.48102 7.04037 10848 ft 304 kts 237°
2026-05-05 18:41 51.46964 7.01185 10851 ft 303 kts 237°
2026-05-05 18:42 51.45823 6.98338 10851 ft 303 kts 237°
2026-05-05 18:42 51.44684 6.95500 10852 ft 302 kts 237°
2026-05-05 18:42 51.43546 6.92669 10849 ft 302 kts 237°
2026-05-05 18:42 51.42404 6.89820 10680 ft 305 kts 237°
2026-05-05 18:43 51.41267 6.86989 10191 ft 298 kts 237°
2026-05-05 18:43 51.40161 6.84247 9689 ft 289 kts 237°
2026-05-05 18:43 51.39087 6.81584 9151 ft 282 kts 237°
2026-05-05 18:43 51.38038 6.78979 8616 ft 276 kts 237°
2026-05-05 18:44 51.37006 6.76416 8102 ft 273 kts 237°
2026-05-05 18:44 51.35971 6.73852 7602 ft 276 kts 237°
2026-05-05 18:44 51.34928 6.71274 7194 ft 274 kts 237°
2026-05-05 18:44 51.33904 6.68751 7010 ft 268 kts 237°
2026-05-05 18:45 51.32905 6.66296 6916 ft 257 kts 237°
2026-05-05 18:45 51.31970 6.63986 6769 ft 247 kts 237°
2026-05-05 18:45 51.31044 6.61695 6385 ft 244 kts 237°
2026-05-05 18:45 51.30129 6.59441 5994 ft 239 kts 237°
2026-05-05 18:46 51.29217 6.57204 5598 ft 241 kts 237°
2026-05-05 18:46 51.28297 6.54950 5290 ft 241 kts 237°
2026-05-05 18:46 51.27390 6.52731 5142 ft 237 kts 237°
2026-05-05 18:46 51.26480 6.50510 5044 ft 241 kts 237°
2026-05-05 18:47 51.25565 6.48276 4655 ft 238 kts 237°
2026-05-05 18:47 51.24665 6.46065 4311 ft 237 kts 237°
2026-05-05 18:47 51.23777 6.43886 4141 ft 230 kts 237°
2026-05-05 18:47 51.22889 6.41812 4057 ft 221 kts 229°
2026-05-05 18:48 51.21589 6.40451 4044 ft 231 kts 195°
2026-05-05 18:48 51.20011 6.40389 4051 ft 235 kts 162°
2026-05-05 18:48 51.18668 6.41718 4050 ft 225 kts 127°
2026-05-05 18:48 51.18014 6.43882 4043 ft 215 kts 95°
2026-05-05 18:49 51.17985 6.46314 3588 ft 226 kts 85°
2026-05-05 18:49 51.18073 6.48819 3289 ft 225 kts 84°
2026-05-05 18:49 51.18194 6.51265 3145 ft 217 kts 83°
2026-05-05 18:49 51.18321 6.53598 3040 ft 203 kts 83°
2026-05-05 18:50 51.18686 6.55625 3018 ft 179 kts 51°
2026-05-05 18:50 51.19187 6.56561 3019 ft 160 kts 51°
2026-05-05 18:50 51.20019 6.58469 2801 ft 157 kts 54°
2026-05-05 18:50 51.20648 6.59874 2573 ft 153 kts 53°
2026-05-05 18:51 51.21269 6.61193 2365 ft 142 kts 52°
2026-05-05 18:51 51.21836 6.62377 2253 ft 130 kts 52°
2026-05-05 18:51 51.22378 6.63530 2049 ft 131 kts 51°
2026-05-05 18:51 51.22913 6.64658 1817 ft 121 kts 52°
2026-05-05 18:52 51.23414 6.65698 1687 ft 118 kts 49°
2026-05-05 18:52 51.23936 6.66766 1563 ft 125 kts 49°
2026-05-05 18:52 51.24464 6.67860 1358 ft 124 kts 50°
2026-05-05 18:52 51.24988 6.68960 1162 ft 126 kts 50°
2026-05-05 18:53 51.25525 6.70075 1040 ft 128 kts 51°
2026-05-05 18:53 51.26079 6.71259 839 ft 139 kts 50°
2026-05-05 18:53 51.26623 6.72428 624 ft 130 kts 50°
2026-05-05 18:53 51.27147 6.73556 461 ft 121 kts 50°
2026-05-05 18:54 51.27680 6.74611 304 ft 127 kts 49°
2026-05-05 18:54 51.28185 6.75665 136 ft 113 kts 49°
2026-05-05 18:54 51.28602 6.76527 121 ft 84 kts 52°
2026-05-05 18:54 51.28917 6.77186 125 ft 64 kts 54°
2026-05-05 18:55 51.29017 6.77516 127 ft 10 kts 103°
2026-05-05 18:55 51.29009 6.77549 125 ft 3 kts 121°
2026-05-05 18:55 51.28982 6.77596 125 ft 8 kts 138°
2026-05-05 18:55 51.28972 6.77609 129 ft 0 kts 141°
2026-05-05 18:56 51.28940 6.77641 130 ft 9 kts 161°
2026-05-05 18:56 51.28871 6.77578 128 ft 16 kts 233°
2026-05-05 18:57 51.28803 6.77432 125 ft 15 kts 233°
2026-05-05 18:57 51.28746 6.77321 127 ft 14 kts 231°
2026-05-05 18:57 51.28688 6.77209 128 ft 3 kts 231°
2026-05-05 18:57 51.28656 6.77134 130 ft 12 kts 234°
2026-05-05 18:58 51.28599 6.77010 130 ft 17 kts 234°
2026-05-05 18:58 51.28538 6.76883 129 ft 7 kts 232°
2026-05-05 18:58 51.28537 6.76881 124 ft 0 kts 232°
2026-05-05 18:59 51.28536 6.76881 129 ft 1 kts 232°
2026-05-05 18:59 51.28493 6.76781 127 ft 16 kts 236°
2026-05-05 18:59 51.28418 6.76627 122 ft 15 kts 232°
2026-05-05 19:00 51.28365 6.76518 123 ft 13 kts 233°
2026-05-05 19:00 51.28310 6.76402 121 ft 13 kts 233°
2026-05-05 19:00 51.28246 6.76265 123 ft 18 kts 233°
2026-05-05 19:00 51.28187 6.76142 121 ft 10 kts 232°
2026-05-05 19:01 51.28136 6.76037 124 ft 12 kts 232°
2026-05-05 19:01 51.28081 6.75924 126 ft 12 kts 232°
2026-05-05 19:01 51.28048 6.75861 123 ft 11 kts 221°
2026-05-05 19:01 51.27972 6.75826 124 ft 14 kts 186°
2026-05-05 19:02 51.27852 6.75819 123 ft 19 kts 181°
2026-05-05 19:02 51.27735 6.75815 124 ft 13 kts 181°
2026-05-05 19:02 51.27648 6.75816 124 ft 13 kts 169°
2026-05-05 19:02 51.27580 6.75861 123 ft 5 kts 142°
2026-05-05 19:03 51.27577 6.75874 123 ft 3 kts 83°
2026-05-05 19:03 51.27593 6.75937 128 ft 0 kts 65°